Time,TemperatureF,DewpointF,PressureIn,WindDirection,WindDirectionDegrees,WindSpeedMPH,WindSpeedGustMPH,Humidity,HourlyPrecipIn,Conditions,Clouds,dailyrainin,SoftwareType,DateUTC
2013-07-16 00:00:00,70.0,-99.9,-100.00,North,349,3.0,-999.0,-999,-99.99,,,-99.99,,2013-07-16 07:00:00,
2013-07-16 01:00:00,68.0,-99.9,-100.00,North,359,3.0,-999.0,-999,-99.99,,,-99.99,,2013-07-16 08:00:00,
2013-07-16 01:52:00,68.0,-99.9,-100.00,North,359,3.0,-999.0,-999,-99.99,,,-99.99,,2013-07-16 08:52:00,
2013-07-16 02:00:00,67.0,-99.9,-100.00,North,356,2.0,-999.0,-999,-99.99,,,-99.99,,2013-07-16 09:00:00,
2013-07-16 03:00:00,66.0,-99.9,-100.00,North,7,2.0,-999.0,-999,-99.99,,,-99.99,,2013-07-16 10:00:00,
2013-07-16 03:52:00,66.0,-99.9,-100.00,North,7,2.0,-999.0,-999,-99.99,,,-99.99,,2013-07-16 10:52:00,
2013-07-16 04:00:00,66.0,-99.9,-100.00,North,357,2.0,-999.0,-999,-99.99,,,-99.99,,2013-07-16 11:00:00,
2013-07-16 04:53:00,66.0,-99.9,-100.00,North,357,2.0,-999.0,-999,-99.99,,,-99.99,,2013-07-16 11:53:00,
2013-07-16 05:00:00,65.0,-99.9,-100.00,North,350,2.0,-999.0,-999,-99.99,,,-99.99,,2013-07-16 12:00:00,
2013-07-16 06:00:00,65.0,-99.9,-100.00,North,350,2.0,-999.0,-999,-99.99,,,-99.99,,2013-07-16 13:00:00,
2013-07-16 07:00:00,65.0,-99.9,-100.00,North,349,3.0,-999.0,-999,-99.99,,,-99.99,,2013-07-16 14:00:00,
2013-07-16 08:00:00,70.0,-99.9,-100.00,North,349,3.0,-999.0,-999,-99.99,,,-99.99,,2013-07-16 15:00:00,
2013-07-16 09:00:00,74.0,-99.9,-100.00,NNW,335,6.0,-999.0,-999,-99.99,,,-99.99,,2013-07-16 16:00:00,
2013-07-16 10:00:00,76.0,-99.9,-100.00,NNW,332,6.0,-999.0,-999,-99.99,,,-99.99,,2013-07-16 17:00:00,
2013-07-16 11:00:00,79.0,-99.9,-100.00,NNW,334,6.0,-999.0,-999,-99.99,,,-99.99,,2013-07-16 18:00:00,
2013-07-16 12:00:00,81.0,-99.9,-100.00,NNW,330,7.0,-999.0,-999,-99.99,,,-99.99,,2013-07-16 19:00:00,
2013-07-16 13:00:00,82.0,-99.9,-100.00,NNW,329,6.0,-999.0,-999,-99.99,,,-99.99,,2013-07-16 20:00:00,
2013-07-16 14:00:00,82.0,-99.9,-100.00,NNW,329,7.0,-999.0,-999,-99.99,,,-99.99,,2013-07-16 21:00:00,
2013-07-16 15:00:00,86.0,-99.9,-100.00,NNW,330,6.0,-999.0,-999,-99.99,,,-99.99,,2013-07-16 22:00:00,
2013-07-16 16:00:00,83.0,-99.9,-100.00,NNW,335,5.0,-999.0,-999,-99.99,,,-99.99,,2013-07-16 23:00:00,
2013-07-16 17:00:00,81.0,-99.9,-100.00,NNW,337,5.0,-999.0,-999,-99.99,,,-99.99,,2013-07-17 00:00:00,
2013-07-16 19:00:00,81.0,-99.9,-100.00,NNW,343,3.0,-999.0,-999,-99.99,,,-99.99,,2013-07-17 02:00:00,
2013-07-16 19:53:00,81.0,-99.9,-100.00,NNW,343,3.0,-999.0,-999,-99.99,,,-99.99,,2013-07-17 02:53:00,
2013-07-16 20:00:00,80.0,-99.9,-100.00,NNW,332,5.0,-999.0,-999,-99.99,,,-99.99,,2013-07-17 03:00:00,
2013-07-16 21:00:00,78.0,-99.9,-100.00,NNW,334,3.0,-999.0,-999,-99.99,,,-99.99,,2013-07-17 04:00:00,
2013-07-16 22:00:00,77.0,-99.9,-100.00,North,349,1.0,-999.0,-999,-99.99,,,-99.99,,2013-07-17 05:00:00,
2013-07-16 23:00:00,73.0,-99.9,-100.00,South,169,2.0,-999.0,-999,-99.99,,,-99.99,,2013-07-17 06:00:00,